www.pogodaiklimat.ru

Погода и климат >> Архив погоды >> Мексика >> Вильяэрмоса


ПОГОДА в Вильяэрмосе

  • Прогноз погоды в Вильяэрмосе
  • Монитор погоды в Вильяэрмосе

АРХИВ ПОГОДЫ в Вильяэрмосе

Время (UTC), дата Ветер
(напр.,м/с)
 
Видим.   Явления Облачность Т
(С)
Тd
(С)
f
(%)
Тe
(С)
Тes
(С)
Комфортность P
(гПа)
Po
(гПа)
Тmin
(С)
Tmax
(С)
R
(мм)
R24
(мм)
S
(см)
09 12.08 С 1 4000 м 8/8 330 м
[]
+26.0 +23.2 85 +35 +35 очень
душно
1012.0 1011.2
12 12.08 штиль 0 4000 м 9/0
[Ac und]
+25.0 +22.2 84 +32 +32 очень
душно
1012.9 1012.1 +25.0 +37.0
21 12.08 СВ 2 7000 м 9/9 1050 м
[Cu med, cong]
+35.5 +26.9 61 +53 +54 опасность
перегрева
1010.8 1010.0
03 13.08 СВ 1 4000 м 4/3 570 м
[Cu med, cong Ac und]
+30.0 +25.2 76 +44 +44 опасность
перегрева
1012.2 1011.4
06 13.08 СВ 1 4000 м 6/6 700 м
[Cu med, cong]
+27.0 +21.3 71 +34 +34 очень
душно
1011.1 1010.3 +25.0 +35.5
09 13.08 СВ 1 4000 м 1/1 360 м
[Cu med, cong]
+27.2 +24.2 84 +38 +38 очень
душно
1010.8 1010.0
12 13.08 В 2 4000 м 4/0
[Ac und]
+26.5 +23.2 82 +36 +36 очень
душно
1011.2 1010.4 +26.5 +35.5
21 13.08 В 2 8000 м 1/1 1230 м
[Cu hum]
+37.0 +26.8 56 +54 +66 опасность
перегрева
1009.7 1008.9
00 14.08 С 2 5000 м 1/1 1080 м
[Cu med, cong]
+35.5 +26.6 60 +52 +53 опасность
перегрева
1010.1 1009.3 +26.5 +37.0
03 14.08 С 1 3000 м 3/0
[Ac trans]
+30.7 +25.6 74 +45 +45 опасность
перегрева
1012.1 1011.3
06 14.08 В 3 3000 м 5/0
[Ci]
+27.4 +24.5 84 +39 +39 очень
душно
1014.0 1013.2 +26.5 +37.0
09 14.08 С 1 3000 м 5/0
[Ci]
+26.4 +24.5 89 +37 +37 очень
душно
1011.9 1011.1
12 14.08 В 1 4000 м 6/0
[Ci]
+25.7 +24.1 91 +36 +36 очень
душно
1011.5 1010.7 +25.5 +37.0
21 14.08 В 2 8000 м 3/1 1140 м
[Cu med, cong Ac und]
+37.1 +27.6 58 +56 +66 опасность
перегрева
1010.1 1009.3
00 15.08 В 2 8000 м 1/0
[Ac und]
+34.5 +27.0 65 +52 +53 опасность
перегрева
1010.3 1009.5 +25.5 +37.2
03 15.08 В 1 4000 м 1/0
[Ac und]
+30.5 +26.7 80 +47 +47 опасность
перегрева
1012.4 1011.6
06 15.08 СВ 3 4000 м 6/0
[Ci]
+27.5 +24.1 82 +38 +38 очень
душно
1014.3 1013.5 +25.5 +37.2
09 15.08 В 1 4000 м 8/0
[]
+25.6 +23.4 88 +35 +35 очень
душно
1012.5 1011.7
12 15.08 В 1 6000 м 5/0
[Ac und Ci]
+24.6 +23.1 91 +33 +33 очень
душно
1013.3 1012.5 +24.6 +37.2
18 15.08 С 1 8000 м 9/3 1140 м
[Cu hum Ci sp]
+33.8 +24.4 58 +46 +61 опасность
перегрева
1013.6 1012.8 +24.6 +33.8
21 15.08 В 1 8000 м 8/3 1350 м
[Cu med, cong Ci]
+35.4 +24.4 53 +48 +57 опасность
перегрева
1010.9 1010.1
00 16.08 СВ 1 6000 м 9/3 1050 м
[Cu med, cong Ci]
+32.9 +24.3 61 +45 +46 опасность
перегрева
1011.2 1010.4 +24.6 +36.2
03 16.08 С 1 3000 м 8/1 750 м
[Cu med, cong Ci]
+30.0 +23.7 69 +41 +41 опасность
перегрева
1013.5 1012.7
12 16.08 В 1 4000 м 4/0
[Cc]
+25.4 +22.5 84 +33 +33 очень
душно
1012.6 1011.8 +25.4 +36.2
15 16.08 СВ 1 8000 м 4/4 450 м
[Cu med, cong]
+27.5 +23.8 80 +38 +45 очень
душно
1013.8 1013.0
18 16.08 штиль 0 7000 м 8/8 750 м
[Cu med, cong]
+33.0 +26.7 70 +51 +56 опасность
перегрева
1014.1 1013.3 +25.4 +33.0
21 16.08 штиль 0 7000 м 6/6 1170 м
[Cu med, cong]
+36.0 +26.3 58 +53 +59 опасность
перегрева
1012.2 1011.4
00 17.08 СВ 1 7000 м 4/4 1300 м
[Cu med, cong]
+35.5 +25.0 55 +49 +49 опасность
перегрева
1010.1 1009.3 +25.4 +36.8
03 17.08 СВ 2 3000 м 4/4 800 м
[Cu med, cong]
+31.0 +24.2 67 +43 +43 опасность
перегрева
1011.4 1010.6
06 17.08 СВ 2 3000 м 1/0
[Ci]
+27.5 +22.6 75 +36 +36 очень
душно
1013.5 1012.7 +25.4 +36.8
09 17.08 СВ 1 3000 м 1/1 330 м
[Cu med, cong]
+27.0 +24.1 84 +37 +37 очень
душно
1012.8 1012.0
12 17.08 СВ 1 4000 м 4/0
[Ac und]
+26.1 +23.3 85 +35 +35 очень
душно
1011.6 1010.8 +26.0 +36.8
15 17.08 В 1 8000 м 5/0
[Ci sp]
+31.2 +24.1 66 +43 +54 опасность
перегрева
1012.4 1011.6
18 17.08 ЮЗ 1 8000 м 3/0
[Cs]
+36.0 +24.6 52 +49 +73 опасность
перегрева
1010.6 1009.8 +25.9 +36.0
21 17.08 С 1 8000 м 8/1 1500 м
[Cu hum Ci]
+38.0 +24.8 47 +51 +62 опасность
перегрева
1008.1 1007.3
00 18.08 С 2 5000 м 10/1 1230 м
[Cu med, cong As trans]
+35.1 +25.0 56 +49 +49 опасность
перегрева
1008.3 1007.5 +25.9 +38.0
06 18.08 С 1 3000 м 3/0
[Ci ing]
+28.5 +23.7 75 +39 +39 очень
душно
1011.0 1010.2 +25.9 +38.0
09 18.08 В 1 3000 м ясно +27.0 +22.8 78 +36 +36 очень
душно
1008.9 1008.1
12 18.08 В 1 4000 м 5/0
[Cc]
+25.5 +22.0 81 +33 +33 очень
душно
1009.5 1008.7 +25.5 +38.0
18 18.08 СВ 2 8000 м 6/5 1200 м
[Cu med, cong Cc]
+35.2 +25.2 56 +49 +59 опасность
перегрева
1011.0 1010.2 +25.5 +35.2
21 18.08 СВ 2 8000 м 6/6 1380 м
[Cu med, cong]
+36.5 +25.1 52 +50 +55 опасность
перегрева
1008.1 1007.3
00 19.08 В 3 8000 м 8/3 1110 м
[Cu med, cong Ci]
+34.0 +24.9 59 +47 +47 опасность
перегрева
1007.8 1007.0 +25.5 +36.6
03 19.08 В 2 4000 м 4/0
[Ac und]
+31.0 +24.8 70 +44 +44 опасность
перегрева
1010.5 1009.7
06 19.08 С 1 4000 м 6/0
[Ac und]
+27.1 +23.8 82 +37 +37 очень
душно
1011.8 1011.0 +25.5 +36.6

 

Местоположение метеостанции Вильяэрмоса (Мексика): широта 17.98 долгота -92.93 высота над уровнем моря 16 м.

В архиве по умолчанию представлена погода в Вильяэрмосе за последнюю неделю. Архивные данные за месяц целиком и за предыдущие месяцы, начиная с января 2011 года, Вы можете получить, выбрав интересующий диапазон дат из раскрывающегося списка и нажав кнопку "Ввод!".


*Определитесь, кто Вы:
робот инопланетянин человек

Внимание! Время в таблицах - всемирное. Для получения местного времени необходимо прибавить поправку, которая равна -6 ч.

Смотрите также архив погоды в соседних городах и на ближайших метеорологических станциях:

Погода в Тустла-Гутьерресе (Мексика) (138 км)
Погода в Сан-Кристобаль-де-лас-Касасе (Мексика) (140 км)
Погода в Коацакоалькосе (Мексика) (157 км)
Погода в Комитане (Мексика) (210 км)
Погода в Арриаге (Мексика) (220 км)
Погода в Салина-Крусе (Мексика) (313 км)
Погода в Кампече (Мексика) (326 км)
Погода в Уэуэтенанго (Гватемала) (335 км)
Погода во Флоресе (Гватемала) (344 км)
Погода в Тапачуле (Мексика) (348 км)

Пояснения к столбцам:

Ветер - указаны скорость ветра в м/с - средняя за 10 мин, порывы в срок и между сроками (в фигурных скобках) и направление, откуда дует ветер: С - северный, СВ - северо-восточный, В - восточный, ЮВ - юго-восточный, Ю - южный, ЮЗ - юго-западный, З - западный, СЗ - северо-западный.
Видимость - горизонтальная дальность видимости в метрах или километрах. При видимости от 1 до 10 км при отсутствии осадков обычно наблюдается дымка, при ухудшении видимости до 1 км и менее - туман. В сухую погоду видимость может ухудшаться дымом, пылью или мглою.
Явления - указаны атмосферные явления, наблюдавшиеся в срок или в последний час перед сроком; фигурными скобками обозначены явления, наблюдавшиеся между сроками (за 1-3 часа до срока); квадратными скобками обозначены град или гололедные отложения с указанием их диаметра в мм.
Облачность - указаны через наклонную черту общая и нижняя облачность в баллах и высота нижней границы облаков в метрах; квадратными скобками обозначены формы облаков: Ci - перистые, Cs - перисто-слоистые, Cc - перисто-кучевые, Ac - высококучевые, As - высокослоистые, Sc - слоисто-кучевые, Ns - слоисто-дождевые, Cu - кучевые, Cb - кучево-дождевые. Подробнее классификацию облаков см. в Атласе облаков (PDF).
T - Температура воздуха - температура, измеренная на высоте 2 м над землей.
Td - Температура точки росы - температура, при понижении до которой содержащийся в воздухе водяной пар достигнет насыщения.
f - Относительная влажность воздуха - влажноcть воздуха, измеренная на высоте 2 м над землей.
Te - Эффективная температура - температура, которую ощущает одетый по сезону человек в тени. Характеристика душности погоды. При расчете учитывается влияние влажности воздуха и скорости ветра на теплоощущения человека.
Tes - Эффективная температура на солнце - температура, которую ощущает человек, с поправкой на солнечный нагрев. Характеристика знойности погоды. Зависит от высоты солнца над горизонтом, облачности и скорости ветра. Ночью, в пасмурную погоду, а также при ветре 12 м/с и более поправка равна нулю.
P - Атмосферное давление - приведенное к уровню моря атмосферное давление.
Po - Атмосферное давление - измеренное на уровне метеостанции атмосферное давление.
Tmin - Минимальная температура - минимум температуры воздуха на высоте 2 м над землей.
Tmax - Максимальная температура - максимум температуры воздуха на высоте 2 м над землей.
R - Количество осадков - Количество выпавших осадков за период времени, мм. При наведении курсора мыши на число - период времени, за который выпало указанное количество осадков.
R24 - Количество осадков - Количество выпавших осадков за 24 часа, мм.
S - Снежный покров - Высота снежного покрова, см. При наведении курсора мыши на число - состояние снежного покрова и степень покрытия местности в баллах.